Location: Colossi of Memnon
(25.7167°N, 32.6167°E)
Time: 11:03:50
(UTC+00:00)

ALOS - Pass Details

Date: 05 March 2021
Orbit: 683 x 684 km, 97.9° (Epoch: 09 April)

Event Time Altitude Azimuth Distance (km) Brightness Sun altitude
Rises 03:10:38 0° 344° (NNW) 3,046 5.4 -13.9°
Reaches altitude 10° 03:14:02 10° 318° (NW) 2,127 4.4 -13.2°
Enters shadow 03:14:46 12° 309° (NW) 2,012 4.2 -13.0°
